Temp
48 44 41 48 47 46 44 40 40 43 49 46 45 46 52 52 47 45 46 47 49 50 53 47 46 44 44 44 45 48 50 49 52 50 50 50 47 48 47 48 49 49 49 48
44 41 51 51 48 46 43 40 41 44 48 47 46 45 49 49 49 50 52 52 52 51 44 45 44 42 43 45 46 46 51 52 52 53 50 49 48 46 46 47 46 46 46 46
43 48 51 50 45 44 42 40 39 43 43 43 40 39 44 49 51 52 52 57 57 55 48 45 43 42 43 44 45 46 51 52 53 50 48 46 46 46 45 44 43 42 43 40
44 48 48 45 44 47 40 46 44 43 39 34 39 34 42 46 49 48 54 55 55 51 48 47 45 42 43 44 45 47 51 52 50 50 47 46 46 44 43 43 41 40 38 38
44 44 44 43 45 49 43 45 43 40 35 32 33 32 41 44 44 50 55 56 53 49 49 46 46 47 45 45 45 47 51 50 49 49 48 48 46 42 42 40 39 38 35 36
43 46 47 48 47 49 47 43 41 35 35 29 36 37 38 41 46 49 55 56 52 46 44 44 45 44 42 44 46 51 50 49 48 48 48 46 42 41 39 39 38 36 33 33
40 43 45 47 44 44 46 42 30 28 25 30 32 32 45 48 49 50 53 55 44 41 41 40 39 41 41 42 46 49 48 46 47 47 46 44 43 43 42 40 39 34 33 33
37 33 44 46 47 44 40 40 31 23 23 28 32 29 40 46 50 47 48 45 42 41 40 40 41 42 41 43 47 48 45 44 46 45 44 44 43 43 43 42 39 37 36 35
35 36 41 43 44 50 39 37 43 35 18 22 33 36 43 43 44 46 48 41 40 41 39 38 39 40 41 43 46 47 44 43 44 44 43 42 43 42 41 40 38 36 36 35
41 34 37 40 45 42 42 45 35 32 22 20 30 31 38 42 45 45 45 46 42 40 37 37 37 38 41 42 42 42 44 42 44 43 43 42 42 41 39 37 35 34 34 35
43 39 33 37 37 38 37 36 36 38 30 23 21 36 41 44 46 46 46 44 42 40 37 36 37 38 38 38 37 39 41 41 42 42 42 41 39 38 37 35 34 34 33 33
45 39 27 35 38 39 38 40 39 33 28 30 28 38 44 43 44 44 45 44 39 39 38 36 36 36 35 36 36 39 39 41 42 42 40 39 38 36 35 34 33 33 33 33
45 35 28 31 35 37 38 40 46 40 34 35 28 37 41 41 42 43 44 40 41 39 36 36 35 36 36 36 37 39 40 40 40 40 39 37 36 34 34 34 33 33 33 32
48 35 34 36 36 37 33 36 39 43 34 36 38 43 48 40 42 45 43 42 40 39 38 36 36 37 38 38 38 39 39 40 39 39 38 36 35 36 35 34 33 33 32 31
46 33 34 35 36 35 34 36 38 38 42 37 42 42 49 52 46 51 49 42 40 39 37 38 37 37 37 37 38 39 39 37 39 38 37 36 36 36 34 33 32 32 32 32
43 35 35 36 37 36 35 35 37 40 43 44 45 44 55 48 47 44 46 45 42 41 41 41 40 38 37 38 38 38 38 36 37 37 36 36 34 33 33 33 32 32 31 31
38 37 34 33 36 34 30 35 38 38 42 43 38 46 53 47 44 45 48 42 43 43 43 42 40 40 39 39 40 38 38 36 35 35 35 34 33 32 32 32 31 31 30 30
35 34 34 33 33 27 39 37 44 42 43 44 42 46 49 48 48 47 43 44 45 44 43 43 43 42 40 40 39 39 36 35 35 34 32 33 33 32 31 31 31 30 30 29
36 34 32 30 31 32 35 33 34 35 38 45 44 46 48 50 39 47 43 44 46 46 46 45 44 43 40 39 39 36 34 34 34 34 32 33 33 31 30 29 30 28 28 28
36 35 32 30 26 26 32 32 34 40 34 31 41 44 44 37 31 43 38 37 39 38 38 39 38 36 36 36 36 34 33 33 33 34 34 34 33 31 29 29 28 28 28 27
27 30 28 29 29 30 35 35 36 30 32 27 30 32 32 35 39 36 35 35 34 34 36 34 35 35 34 33 34 32 32 32 33 33 32 32 31 31 30 29 28 27 27 26
28 28 27 29 27 25 34 33 34 36 33 31 31 31 31 35 36 35 35 35 34 33 33 32 30 30 29 31 33 30 30 30 31 31 30 30 31 30 30 30 28 28 27 26
27 31 27 31 32 34 34 34 35 36 35 35 35 36 35 34 35 35 34 33 33 29 29 27 28 28 27 31 35 32 31 32 31 31 30 31 31 31 31 30 28 27 28 27
28 31 31 31 34 33 34 33 34 35 35 35 36 36 34 33 35 33 29 32 31 27 28 25 28 27 26 27 29 30 31 31 32 31 30 30 30 30 30 30 30 28 25 24
29 30 29 28 32 31 34 34 35 34 35 34 34 35 35 35 30 30 28 27 29 28 25 25 26 25 22 24 23 22 25 28 28 27 25 27 28 26 22 21 22 22 18 24
28 29 29 29 36 37 37 34 34 33 33 33 33 31 32 33 32 29 26 26 24 25 23 24 23 23 19 18 16 15 16 23 22 18 18 18 18 17 17 16 15 25 24 26
MSLP
1017.85 1018.40 1018.38 1017.77 1018.00 1018.19 1018.50 1018.78 1018.65 1018.09 1017.56 1017.82 1017.65 1017.46 1016.82 1016.81 1017.26 1017.24 1017.35 1017.35 1017.17 1017.19 1016.86 1018.02 1018.75 1019.46 1020.09 1020.39 1020.61 1020.78 1020.96 1021.21 1021.43 1022.01 1022.45 1022.77 1023.23 1023.73 1023.87 1024.00 1024.12 1024.45 1024.82 1025.29
1018.64 1018.07 1017.31 1017.79 1018.22 1018.53 1018.69 1018.84 1018.62 1018.03 1017.71 1018.05 1017.46 1017.06 1016.31 1016.20 1015.88 1015.52 1015.53 1015.49 1015.63 1016.00 1016.57 1017.42 1018.32 1019.14 1019.57 1019.85 1020.10 1020.39 1020.55 1020.92 1021.25 1021.64 1022.12 1022.64 1023.28 1024.04 1024.29 1024.47 1024.60 1024.97 1025.31 1025.64
1017.76 1016.99 1016.78 1017.63 1018.24 1018.77 1018.66 1018.81 1018.65 1018.56 1018.14 1017.97 1017.78 1016.68 1015.58 1014.55 1014.34 1014.09 1013.79 1013.55 1013.84 1014.09 1015.33 1016.59 1017.71 1018.29 1018.91 1019.15 1019.50 1019.98 1020.18 1020.57 1021.08 1021.56 1022.17 1023.09 1023.72 1024.32 1024.72 1025.15 1025.26 1025.77 1025.94 1026.27
1017.82 1016.87 1017.13 1017.61 1017.77 1018.21 1018.29 1018.00 1018.40 1018.83 1019.35 1018.97 1018.14 1015.81 1014.83 1014.29 1013.75 1013.29 1012.38 1012.20 1012.13 1013.25 1014.09 1015.21 1016.39 1017.23 1017.57 1018.21 1018.94 1019.40 1019.76 1020.19 1020.73 1021.26 1021.97 1022.43 1022.89 1023.86 1024.60 1025.18 1025.70 1026.27 1026.64 1026.88
1016.40 1016.75 1017.00 1017.05 1016.89 1017.57 1017.70 1017.96 1018.52 1019.01 1019.56 1019.45 1018.68 1017.91 1013.60 1013.43 1013.22 1012.29 1011.26 1010.77 1011.24 1011.98 1012.95 1013.95 1014.84 1015.58 1016.79 1017.72 1018.36 1018.98 1019.45 1020.02 1020.61 1021.06 1021.71 1022.30 1023.06 1023.81 1024.60 1025.39 1025.87 1026.50 1027.17 1027.28
1016.32 1016.13 1016.31 1016.23 1016.60 1016.83 1017.41 1018.30 1019.07 1019.96 1020.17 1019.25 1018.15 1017.58 1012.89 1012.87 1011.70 1011.21 1010.33 1010.23 1010.71 1011.84 1012.91 1014.00 1014.84 1015.80 1016.68 1017.56 1018.19 1018.53 1019.11 1019.72 1020.44 1020.97 1021.60 1022.24 1022.85 1023.71 1024.67 1025.54 1026.12 1026.98 1027.56 1027.90
1016.52 1016.02 1015.88 1015.94 1016.74 1017.27 1017.32 1018.58 1019.94 1020.69 1021.00 1018.68 1017.73 1017.11 1012.46 1011.65 1010.77 1010.46 1010.27 1009.97 1011.07 1012.26 1013.18 1014.04 1014.92 1015.62 1016.31 1016.93 1017.68 1018.26 1018.84 1019.53 1020.16 1020.81 1021.45 1022.19 1022.90 1023.39 1023.79 1024.35 1025.40 1026.65 1027.58 1028.07
1016.26 1015.97 1015.33 1015.27 1015.32 1016.17 1017.27 1017.71 1019.05 1020.08 1020.80 1019.28 1018.05 1015.40 1011.87 1010.81 1010.02 1010.19 1010.25 1010.65 1011.79 1012.86 1013.41 1013.99 1014.62 1015.34 1016.06 1016.69 1017.14 1017.78 1018.45 1019.16 1019.75 1020.51 1021.27 1022.13 1022.90 1023.54 1024.18 1024.35 1025.01 1025.95 1026.62 1027.33
1015.60 1015.33 1014.68 1014.75 1014.83 1015.45 1017.03 1017.34 1017.48 1018.96 1020.75 1020.17 1016.80 1013.66 1011.57 1010.76 1010.57 1010.27 1009.94 1010.98 1012.08 1012.89 1013.63 1014.32 1015.02 1015.45 1015.93 1016.28 1016.76 1017.25 1017.95 1018.77 1019.50 1020.21 1021.06 1021.97 1022.79 1023.49 1024.13 1024.86 1025.34 1026.13 1026.89 1027.48
1014.40 1015.05 1015.09 1015.16 1015.15 1015.65 1015.79 1016.22 1017.69 1018.77 1019.96 1019.30 1015.91 1014.16 1011.78 1010.66 1010.09 1009.99 1010.51 1011.18 1012.00 1012.60 1013.59 1014.49 1015.16 1015.51 1015.78 1016.17 1016.90 1017.66 1018.15 1018.49 1019.06 1019.95 1020.67 1021.50 1022.37 1023.28 1024.05 1024.87 1025.34 1026.18 1027.00 1027.42
1014.08 1014.72 1015.83 1015.83 1015.29 1015.14 1016.04 1016.09 1016.77 1017.48 1018.12 1017.80 1016.21 1011.87 1009.78 1009.52 1009.50 1009.85 1010.34 1011.06 1011.94 1012.70 1013.59 1014.21 1015.14 1015.89 1016.31 1016.54 1016.75 1017.27 1017.96 1018.63 1019.28 1019.77 1020.57 1021.48 1022.33 1023.18 1023.95 1024.66 1025.37 1025.96 1026.77 1027.42
1013.43 1014.24 1015.45 1015.23 1014.96 1014.95 1014.74 1014.55 1015.24 1016.23 1016.93 1016.68 1015.61 1009.81 1009.05 1009.18 1009.37 1009.72 1010.26 1010.92 1011.80 1012.85 1013.81 1014.55 1015.11 1015.75 1016.51 1016.97 1016.98 1016.82 1017.17 1018.07 1018.94 1019.62 1020.43 1021.33 1022.18 1022.97 1023.77 1024.50 1025.26 1025.93 1026.65 1027.40
1012.69 1014.02 1015.22 1015.26 1015.35 1015.13 1014.77 1014.44 1013.98 1014.63 1015.09 1014.12 1014.64 1008.93 1008.96 1009.02 1009.24 1009.65 1010.16 1010.66 1011.65 1012.78 1013.42 1014.38 1014.96 1015.35 1015.98 1016.51 1016.90 1017.12 1017.12 1017.20 1017.76 1019.03 1020.26 1021.29 1022.03 1022.73 1023.48 1024.10 1024.82 1025.60 1026.35 1027.10
1011.94 1012.96 1012.76 1012.45 1012.38 1012.79 1013.90 1013.43 1013.38 1013.70 1013.95 1011.86 1011.16 1008.03 1008.01 1008.64 1008.97 1009.38 1009.94 1010.64 1011.53 1012.62 1013.06 1013.86 1014.62 1014.81 1014.97 1015.31 1015.64 1016.25 1017.00 1017.43 1017.71 1018.39 1019.41 1020.61 1021.72 1022.45 1023.19 1024.04 1024.82 1025.51 1026.15 1026.86
1012.18 1012.80 1012.56 1012.07 1012.01 1012.24 1012.35 1012.55 1012.88 1012.74 1010.68 1011.96 1008.16 1009.58 1005.55 1007.77 1008.51 1008.44 1008.98 1010.13 1011.28 1011.72 1012.57 1012.98 1013.27 1013.79 1014.42 1015.04 1015.48 1015.70 1016.14 1016.56 1017.00 1017.75 1018.58 1019.46 1020.57 1022.01 1023.25 1023.89 1024.62 1025.36 1026.06 1026.75
1012.23 1012.39 1012.61 1012.21 1011.79 1012.13 1012.39 1012.25 1011.30 1011.11 1010.42 1010.89 1008.68 1008.32 1004.32 1006.94 1007.53 1008.13 1008.72 1009.41 1010.27 1011.07 1011.26 1011.52 1012.14 1013.01 1013.56 1014.05 1014.44 1014.97 1015.45 1016.40 1017.05 1017.53 1018.21 1019.29 1020.07 1021.10 1022.80 1023.87 1024.72 1025.51 1026.21 1026.87
1012.09 1011.82 1012.01 1011.07 1011.13 1012.21 1011.82 1008.80 1010.57 1010.40 1009.75 1009.30 1009.19 1005.49 1004.67 1007.25 1007.78 1008.01 1008.04 1008.86 1009.60 1009.63 1009.94 1010.37 1010.60 1010.83 1011.67 1012.37 1013.32 1014.11 1014.92 1015.73 1016.54 1017.51 1018.51 1019.02 1019.74 1020.70 1022.29 1023.69 1024.69 1025.56 1026.22 1026.88
1011.84 1011.76 1011.34 1010.27 1010.91 1009.54 1007.48 1007.97 1008.25 1009.22 1008.82 1008.96 1008.28 1006.55 1006.02 1006.77 1007.46 1007.54 1008.24 1008.41 1008.59 1008.81 1008.79 1008.85 1009.16 1009.81 1010.50 1011.23 1012.45 1013.39 1014.72 1015.42 1016.29 1017.03 1017.79 1018.64 1019.51 1020.22 1021.50 1022.94 1023.82 1024.93 1025.81 1026.38
1011.63 1011.62 1011.25 1010.47 1009.36 1008.59 1008.21 1007.92 1008.00 1008.59 1007.92 1007.45 1007.74 1007.42 1006.68 1006.63 1008.32 1006.96 1008.04 1007.68 1007.73 1008.01 1007.73 1007.78 1007.99 1008.68 1009.72 1010.22 1011.40 1012.65 1014.08 1014.77 1015.80 1016.44 1017.00 1017.94 1019.01 1019.93 1021.34 1022.44 1023.17 1024.25 1025.31 1026.25
1011.65 1011.51 1011.17 1010.39 1009.32 1008.48 1007.48 1007.19 1007.58 1008.15 1008.39 1006.95 1007.47 1007.26 1007.04 1008.24 1008.89 1007.39 1008.32 1008.32 1008.33 1008.34 1007.93 1007.79 1008.01 1008.81 1009.50 1010.29 1011.40 1012.26 1013.92 1014.81 1015.21 1016.11 1016.95 1017.79 1018.65 1019.74 1020.89 1021.91 1023.04 1023.95 1024.94 1025.81
1011.26 1010.84 1010.12 1009.68 1009.03 1008.32 1007.35 1007.62 1008.12 1008.44 1008.12 1007.48 1007.78 1007.87 1008.19 1008.64 1008.19 1008.47 1008.48 1008.58 1008.97 1008.69 1008.13 1008.07 1008.75 1009.23 1009.79 1010.48 1011.53 1012.61 1013.78 1014.53 1015.20 1016.09 1016.96 1017.73 1018.69 1019.58 1020.72 1021.74 1022.78 1023.84 1024.77 1025.71
1009.58 1010.01 1009.63 1009.59 1008.87 1007.94 1007.16 1008.76 1008.36 1007.43 1007.73 1008.09 1008.45 1008.44 1008.55 1008.71 1008.70 1008.89 1008.98 1009.05 1009.26 1009.18 1008.90 1009.39 1009.95 1010.50 1010.80 1011.13 1012.00 1013.13 1013.86 1014.64 1015.44 1016.36 1017.23 1018.23 1019.12 1020.13 1021.06 1021.82 1022.79 1023.89 1024.68 1025.15
1009.19 1008.47 1008.38 1008.15 1007.24 1007.01 1006.62 1006.96 1006.96 1007.57 1007.91 1008.03 1008.12 1008.61 1008.78 1008.90 1009.30 1009.16 1009.43 1009.82 1010.15 1010.48 1010.33 1010.27 1010.52 1011.38 1011.79 1012.16 1012.64 1013.33 1014.08 1014.53 1015.35 1016.28 1016.99 1018.00 1018.79 1019.62 1020.44 1021.19 1022.10 1023.19 1023.87 1024.57
1008.21 1008.08 1008.20 1008.02 1007.14 1006.76 1006.67 1007.53 1007.71 1007.92 1007.60 1007.68 1007.95 1008.29 1008.51 1008.81 1009.12 1009.60 1009.75 1010.16 1010.84 1011.26 1011.37 1011.45 1011.69 1012.11 1012.75 1012.82 1013.19 1013.68 1014.36 1014.82 1015.41 1016.26 1017.25 1018.06 1018.85 1019.55 1020.25 1020.98 1021.69 1022.45 1023.31 1024.03
1008.41 1007.98 1007.60 1007.67 1006.97 1007.17 1007.05 1007.08 1007.02 1007.55 1007.92 1008.32 1007.94 1008.15 1008.59 1008.96 1009.52 1009.88 1010.38 1010.85 1011.38 1011.79 1011.99 1012.37 1012.76 1013.35 1014.07 1014.04 1014.48 1014.65 1014.96 1015.36 1016.24 1016.91 1017.73 1018.49 1019.25 1020.01 1020.75 1021.60 1022.11 1022.70 1023.26 1023.48
1007.83 1007.33 1007.56 1006.75 1006.41 1006.42 1006.55 1006.61 1006.81 1007.43 1007.80 1008.27 1008.69 1009.19 1009.21 1009.31 1009.76 1010.37 1010.94 1011.54 1012.07 1012.63 1013.14 1013.48 1013.80 1014.11 1014.80 1015.22 1015.81 1016.11 1016.15 1016.18 1016.84 1017.80 1018.57 1019.16 1019.96 1020.72 1021.41 1022.17 1022.96 1023.10 1023.48 1023.61
Wind_Speed
1 4 9 15 9 3 4 4 6 4 3 3 9 9 15 8 7 10 11 12 15 18 11 9 9 8 7 7 7 8 9 7 8 6 5 4 4 3 4 4 7 7 7 8
3 9 14 4 5 4 1 3 8 6 5 6 10 13 13 9 10 11 17 18 18 14 9 10 11 9 9 10 10 10 10 11 8 6 3 4 4 4 4 4 7 7 7 8
9 6 6 9 5 5 7 8 5 8 4 4 5 8 10 10 9 10 12 18 16 20 16 13 14 15 11 13 12 11 11 12 9 8 8 7 7 5 3 4 5 4 7 7
8 3 6 5 6 9 9 8 5 5 2 6 1 11 7 6 11 9 17 17 20 11 10 14 17 16 16 13 11 11 12 12 11 12 9 14 8 8 3 4 5 5 6 7
9 7 6 6 7 9 7 4 6 2 3 4 3 7 7 5 9 14 17 18 13 12 15 18 21 20 14 12 13 12 13 11 12 11 11 9 9 6 7 7 10 8 5 6
4 2 7 8 3 7 7 5 6 4 2 8 12 10 5 7 9 6 11 14 10 8 8 8 9 10 12 10 11 13 14 12 13 12 12 10 13 13 11 9 8 6 4 4
1 6 4 4 6 2 4 6 2 5 2 10 4 5 12 8 8 10 11 13 1 4 8 9 12 14 13 15 14 12 14 13 13 12 12 11 13 15 16 16 12 12 7 5
10 6 13 8 12 9 9 10 8 8 5 6 2 10 8 11 11 7 10 5 4 6 8 10 12 13 13 15 16 15 14 13 14 13 12 11 12 8 9 11 12 9 9 8
8 8 1 1 3 11 6 8 4 3 2 3 6 9 8 10 11 12 13 3 5 7 7 8 8 10 13 15 16 17 15 13 13 13 12 12 12 11 11 10 9 7 7 7
5 3 1 2 4 3 6 7 3 2 3 6 6 8 12 6 8 8 10 9 6 7 6 6 7 9 11 12 10 8 10 13 14 13 12 12 12 11 10 9 10 10 9 10
5 4 1 2 6 12 4 4 2 4 6 6 4 10 8 7 7 7 7 5 5 7 6 8 7 6 7 6 7 8 9 11 12 13 12 13 12 11 11 10 10 10 10 11
8 4 5 10 2 3 1 8 7 6 6 5 3 18 5 4 1 4 7 6 1 4 7 7 7 8 7 7 8 12 12 13 12 12 12 12 12 12 12 11 10 10 12 9
10 5 1 3 2 1 7 8 17 3 3 16 7 15 2 1 5 5 6 1 3 7 7 7 8 11 11 11 12 12 12 13 13 13 12 12 13 13 13 13 12 12 12 10
5 5 10 13 6 7 8 10 12 16 9 8 21 27 18 2 4 6 6 5 6 8 8 8 8 11 13 14 15 14 12 11 13 14 14 14 14 14 13 12 12 11 11 11
8 7 5 5 3 4 4 7 16 20 30 15 32 20 32 17 12 15 7 7 8 7 8 11 13 13 12 12 12 12 13 14 15 15 15 16 14 12 11 11 12 11 10 9
9 8 7 17 12 8 7 7 19 24 26 22 30 26 31 7 7 5 9 9 6 8 11 12 11 11 14 15 15 14 14 13 13 14 15 13 13 13 12 11 11 10 9 8
9 11 11 23 9 7 7 33 16 14 18 20 24 37 32 13 8 9 14 4 9 12 12 11 15 17 16 17 16 17 14 13 14 13 12 12 14 14 12 11 11 11 11 9
7 3 3 8 5 15 16 1 15 20 23 19 16 25 24 14 11 13 4 7 12 10 11 12 11 12 15 13 13 12 12 13 14 12 12 14 14 14 14 13 13 11 10 11
5 6 5 7 11 5 8 7 10 12 20 23 24 25 29 26 4 22 10 10 12 11 11 11 10 9 11 14 14 13 13 14 14 15 15 15 14 14 14 14 13 10 9 8
15 10 6 4 5 8 7 3 4 8 13 5 16 24 23 5 2 12 3 6 9 8 7 7 7 7 10 10 12 14 13 12 15 12 11 12 13 14 14 13 12 9 8 7
6 6 17 13 10 5 5 5 3 7 9 4 5 4 6 6 7 1 6 5 4 5 6 1 6 8 8 10 12 12 11 13 9 9 9 10 11 12 12 11 9 8 8 7
11 11 6 8 8 9 9 3 10 4 0 4 3 1 3 6 7 5 6 5 6 4 4 4 6 5 5 8 11 9 9 7 9 10 10 10 9 8 9 11 9 8 9 9
5 7 7 10 7 2 6 3 4 4 4 4 4 4 4 4 5 4 4 5 5 4 3 3 7 7 5 6 8 11 9 11 12 12 12 12 11 10 10 11 11 9 10 8
5 5 3 1 5 7 6 4 5 6 6 6 5 5 4 2 3 3 1 1 1 3 2 1 6 6 4 4 5 5 9 9 10 10 10 9 10 9 9 8 7 8 7 7
3 5 6 4 6 4 8 10 6 6 4 4 3 4 5 4 3 3 1 1 1 2 2 3 5 5 5 5 6 5 6 9 8 7 6 7 6 8 6 4 4 4 1 5
6 7 5 5 5 1 6 3 8 9 8 8 6 3 3 3 4 3 3 2 3 4 2 4 5 8 5 7 7 6 4 6 8 7 5 5 5 5 5 6 5 6 8 9
Wind_Direction
9 122 204 213 202 142 150 204 245 237 261 162 233 247 258 246 231 240 237 237 233 231 230 185 184 178 178 180 170 177 160 163 140 136 133 122 112 105 77 78 87 90 95 99
68 228 219 143 173 203 245 247 259 289 231 184 265 259 254 235 237 218 229 237 233 228 195 187 180 179 184 181 185 178 171 164 160 160 119 118 128 82 91 91 85 89 100 103
180 210 161 165 163 174 228 214 240 231 326 236 304 272 249 251 249 249 247 242 240 225 209 186 184 188 186 191 182 175 173 167 161 126 114 97 94 100 93 85 90 67 89 91
243 258 141 172 195 168 246 207 203 255 25 256 59 284 237 240 250 236 253 241 241 223 194 189 187 191 193 189 173 171 173 168 149 149 145 159 153 151 142 123 113 98 84 94
235 177 175 187 197 169 236 146 179 186 199 336 207 273 257 201 248 248 250 252 240 211 197 192 194 195 185 170 174 169 171 161 159 157 161 161 142 114 120 123 121 113 96 103
237 185 167 198 138 163 139 84 56 52 55 266 200 210 184 190 213 247 254 258 242 216 198 194 184 164 167 164 170 173 167 165 163 160 161 159 146 144 139 144 132 131 120 112
139 218 189 148 99 45 137 100 319 324 346 247 355 250 257 288 236 221 248 270 249 174 174 171 168 173 165 169 172 169 169 169 163 161 159 157 156 160 160 155 152 149 148 149
184 279 171 187 186 179 197 160 163 213 217 276 354 246 250 227 263 279 264 287 148 201 198 193 183 178 171 171 171 171 170 167 167 164 161 159 159 166 163 165 152 153 157 153
173 262 127 126 124 151 198 210 168 79 91 2 224 285 282 261 287 279 265 101 192 232 208 184 174 176 172 174 179 176 170 167 167 165 159 162 165 165 166 160 146 143 136 140
215 253 27 154 106 39 163 165 99 5 211 257 273 267 238 264 250 258 282 291 238 225 183 171 174 171 176 173 168 165 173 170 166 163 165 165 165 163 151 151 145 148 148 149
159 137 287 109 209 169 149 181 143 134 156 185 299 262 213 211 225 245 266 299 272 236 187 167 166 174 174 165 155 156 159 160 167 165 164 163 163 155 152 157 155 153 148 154
204 132 173 203 256 260 293 196 154 158 216 238 155 265 162 184 101 299 290 319 310 200 181 171 165 162 171 181 175 169 165 167 173 168 164 166 159 155 159 159 157 154 158 159
167 195 112 316 19 338 213 207 203 133 85 221 153 262 37 289 262 240 254 95 188 209 172 174 169 182 185 187 190 191 185 176 164 159 163 162 167 164 168 165 161 162 159 161
112 176 193 218 185 144 188 197 199 202 226 207 231 255 246 198 230 266 276 250 217 214 182 188 193 201 198 195 191 188 187 179 167 165 168 170 174 174 171 166 165 164 163 160
149 243 207 216 148 165 188 197 194 205 228 203 249 240 259 237 227 242 282 197 202 206 203 204 204 205 201 199 199 194 188 177 172 171 173 176 169 167 163 163 164 161 163 164
172 233 192 260 233 201 237 232 217 218 233 230 249 253 257 195 232 239 244 247 236 223 224 222 206 199 202 201 199 190 187 183 175 175 175 167 159 152 164 164 164 158 160 158
187 208 198 243 217 171 222 232 209 216 229 217 231 243 263 260 235 247 255 258 241 237 225 217 209 203 198 199 192 195 186 168 176 174 171 163 159 156 160 158 159 168 171 161
224 252 246 253 151 221 244 315 231 228 239 226 251 256 265 261 257 260 190 220 245 243 227 223 211 202 203 188 188 175 174 174 176 172 166 165 164 159 156 163 169 168 169 176
181 175 230 230 242 266 273 190 146 168 246 233 229 246 258 268 346 281 208 234 258 257 257 235 214 200 177 177 171 164 171 173 175 180 174 170 166 160 162 172 171 166 163 173
210 210 211 186 224 231 250 161 131 104 254 153 193 230 243 111 238 275 344 332 308 303 271 239 177 149 159 165 159 158 169 174 188 184 173 163 165 164 169 168 167 165 170 175
168 198 218 230 244 246 241 147 146 135 242 194 161 180 173 193 215 222 302 312 303 296 312 105 147 159 152 140 147 157 163 188 169 155 154 154 160 162 164 159 157 155 160 159
172 180 190 212 232 244 164 91 175 191 152 149 196 198 221 255 286 301 306 308 342 12 50 82 102 101 116 134 141 143 153 122 116 127 131 135 142 143 150 155 153 166 178 180
201 198 187 193 202 259 207 203 150 169 165 182 163 168 197 238 260 319 319 337 355 1 48 51 113 107 83 118 138 139 152 145 145 146 152 164 167 171 173 172 173 172 184 189
234 167 194 99 247 223 193 224 227 207 193 178 177 170 155 223 278 268 338 348 7 13 36 56 109 109 112 88 87 97 135 146 152 160 166 166 171 170 172 178 178 180 178 188
188 136 169 256 278 310 245 228 208 203 188 200 116 152 188 202 228 192 196 148 131 86 41 58 97 101 91 80 75 76 125 142 150 143 138 150 154 155 131 98 137 151 100 179
192 171 181 218 208 116 272 286 192 186 189 196 167 198 185 177 216 145 126 115 107 91 54 94 98 107 85 79 70 50 52 116 126 120 125 131 129 123 126 122 96 109 148 140